Retour au catalogue

COSMOS 2251 DEB

ActifLEO
NORAD 34721·DEBRIS·🇷🇺 Russia

Lancé Jun 16, 1993 depuis Plesetsk Cosmodrome

Loading…

Prochains Passages (prochaines 24 heures)

TLE

FraisSource: Space-Track

Époque: Sep 14, 2026, 13:31 UTC

1 34721U 93036YP  26257.56364791  .00001395  00000-0  82484-3 0  9998
2 34721  73.9213 207.3229 0213757  91.2538  26.8306 13.97811703890026

Suivez COSMOS 2251 DEB en temps réel avec AllMySat

Download on the App Store